sat.trackr.live / text

‹ back to catalog

NUVIEW BRAVO

NORAD 62457 · 2024-252D

PAYLOAD ACTIVE UNKNOWN

§ Identity

Operator
Country
UK
Launch date
2024-12-29
Launch site
AFETR
Launch vehicle
Mass (kg)
RCS (m²)

Purposes: comms

External: N2YO · Heavens-Above · Gunter

§ Orbital elements

Epoch: 2026-09-19T21:42:31.562208Z

Period
1,436.08 min
Inclination
0.0634°
Eccentricity
0.0001710
Mean motion
1.00272817 rev/d
Perigee alt
35,779.1 km
Apogee alt
35,793.5 km
Semi-major
42,164.4 km
B*
0.0000e+0
RAAN
160.4000°
Arg perigee
22.7787°
Mean anomaly
58.1634°
Rev number
474

§ Raw data

NUVIEW BRAVO1 62457U 24252D   26262.90453197 -.00000219  00000+0  00000+0 0  99962 62457   0.0634 160.4000 0001710  22.7787  58.1634  1.00272817  4742

JSON: /api/v1/satellites/62457 · /tle

For live sub-satellite position, see the globe view (requires WebGL).

§ Visibility from observer

Set your observer location to see the next 7 days of passes ≥ 10°. The values pass through the URL so the page stays shareable.

No JS? Fill the form by hand. The geolocation button needs JavaScript.